Waarnemingen

Advertentie
Mijn weer
Beauvechain, België (6458): temperatuur & dauwpunt: 16.01.2018 17:00:00 - 22.01.2018 17:00:00 (CET)Beauvechain, België (6458): windsnelheid & windstoten: 16.01.2018 17:00:00 - 22.01.2018 17:00:00 (CET)Beauvechain, België (6458): windrichting: 16.01.2018 17:00:00 - 22.01.2018 17:00:00 (CET)Beauvechain, België (6458): luchtdruk: 16.01.2018 17:00:00 - 22.01.2018 17:00:00 (CET)Beauvechain, België (6458): zicht: 16.01.2018 17:00:00 - 22.01.2018 17:00:00 (CET)
Datum & Tijd tt [°C] td [°C] ff [km/u] ff [kn] fx [km/u] fx [kn] dd ppp [hPa] vv [km]
22.01.2018 17:00:00 7,5 3,7 11 6 22 12 W 1013,7 10
22.01.2018 16:00:00 8,2 5,1 14 8 - - WNW 1012,0 10
22.01.2018 15:00:00 8,6 5,3 14 8 22 12 WNW 1010,7 10
22.01.2018 14:00:00 8,8 6,5 14 8 22 12 NW 1009,7 10
22.01.2018 13:00:00 8,6 7,2 7 4 - - WNW 1009,2 8
22.01.2018 12:00:00 8,6 7,7 4 2 11 6 N 1009,2 8
22.01.2018 11:00:00 8,5 7,6 4 2 7 4 N 1008,5 8
22.01.2018 10:00:00 8,3 7,7 4 2 - - N 1008,2 8
22.01.2018 09:00:00 8,6 7,9 7 4 14 8 W 1008,0 6
22.01.2018 08:00:00 8,9 8,1 11 6 22 12 W 1007,2 7
22.01.2018 07:00:00 8,6 8,0 14 8 - - WZW 1007,1 7
22.01.2018 06:00:00 8,1 7,6 14 8 25 14 WZW 1007,0 7
22.01.2018 05:00:00 7,5 7,1 18 10 25 14 WZW 1007,1 20
22.01.2018 04:00:00 6,0 5,7 18 10 - - ZW 1006,7 2,8
22.01.2018 03:00:00 5,3 4,7 22 12 36 19 ZW 1007,1 3,2
22.01.2018 02:00:00 4,3 3,6 22 12 36 19 ZZW 1007,5 7
22.01.2018 01:00:00 3,5 2,6 18 10 - - ZZW 1008,0 4,3
22.01.2018 00:00:00 3,0 1,8 18 10 32 18 Z 1008,7 6
21.01.2018 23:00:00 2,5 1,3 18 10 32 18 Z 1010,0 14
21.01.2018 22:00:00 2,3 1,1 14 8 - - ZZO 1011,1 9
21.01.2018 21:00:00 2,9 1,0 18 10 29 16 ZZO 1012,7 17
21.01.2018 20:00:00 3,3 1,1 14 8 25 14 ZZO 1014,0 18
21.01.2018 19:00:00 3,7 0,8 14 8 - - Z 1014,6 20
21.01.2018 18:00:00 3,7 1,0 11 6 18 10 ZZO 1015,2 20
21.01.2018 17:00:00 3,7 1,2 7 4 14 8 ZZO 1016,5 18
21.01.2018 16:00:00 3,7 1,4 7 4 - - Z 1017,2 12
21.01.2018 15:00:00 3,6 1,3 11 6 14 8 Z 1017,2 9
21.01.2018 14:00:00 4,0 2,1 11 6 18 10 ZZW 1017,5 9
21.01.2018 13:00:00 3,3 1,7 11 6 - - ZZW 1017,6 7
21.01.2018 12:00:00 2,6 1,4 11 6 18 10 ZW 1018,0 8
21.01.2018 11:00:00 1,7 0,8 11 6 14 8 ZW 1017,7 7
21.01.2018 10:00:00 1,1 0,2 11 6 - - ZW 1017,0 5
21.01.2018 09:00:00 0,5 0,0 11 6 11 6 ZW 1016,6 3,6
21.01.2018 08:00:00 0,6 0,0 7 4 14 8 WZW 1015,3 2,7
21.01.2018 07:00:00 0,9 0,1 11 6 - - WZW 1014,5 2,8
21.01.2018 06:00:00 1,3 0,4 7 4 18 10 W 1013,6 4,8
21.01.2018 05:00:00 1,5 0,7 11 6 14 8 WZW 1012,7 4,0
21.01.2018 04:00:00 2,0 1,4 7 4 - - W 1011,5 4,5
21.01.2018 03:00:00 2,0 1,4 7 4 22 12 W 1010,6 4,6
21.01.2018 02:00:00 2,0 1,4 11 6 14 8 WNW 1009,2 2,7
21.01.2018 01:00:00 1,2 0,8 7 4 - - WNW 1007,7 2,4
21.01.2018 00:00:00 1,0 0,6 7 4 22 12 NW 1006,2 2,3
20.01.2018 23:00:00 0,8 0,4 11 6 18 10 NNW 1004,7 0,7
20.01.2018 22:00:00 0,7 0,4 7 4 - - NW 1003,6 0,6
20.01.2018 21:00:00 0,5 0,0 4 2 7 4 N 1002,2 1,2
20.01.2018 20:00:00 0,6 0,2 4 2 7 4 N 1001,3 1,4
20.01.2018 19:00:00 0,7 0,2 4 2 - - N 1000,6 1,9
20.01.2018 18:00:00 0,8 0,3 4 2 7 4 N 999,5 5
20.01.2018 17:00:00 0,8 0,2 4 2 11 6 N 999,1 13
20.01.2018 16:00:00 0,5 0,0 7 4 - - O 999,3 8
20.01.2018 15:00:00 0,4 -0,1 7 4 11 6 O 1000,1 2,4
20.01.2018 14:00:00 0,8 0,0 7 4 18 10 O 1000,8 6
20.01.2018 13:00:00 2,0 1,0 11 6 - - ZZO 1002,1 17
20.01.2018 12:00:00 2,5 1,2 14 8 25 14 Z 1003,8 18
20.01.2018 11:00:00 3,1 1,6 14 8 22 12 Z 1004,7 19
20.01.2018 10:00:00 3,0 1,8 18 10 - - Z 1005,8 20
20.01.2018 09:00:00 2,9 1,6 14 8 29 16 Z 1006,6 10
20.01.2018 08:00:00 2,7 1,2 18 10 29 16 ZZW 1007,5 19
20.01.2018 07:00:00 1,8 0,5 18 10 - - ZZW 1008,2 20
20.01.2018 06:00:00 1,8 0,5 18 10 29 16 ZZW 1008,7 20
20.01.2018 05:00:00 2,2 0,7 18 10 29 16 ZW 1009,3 20
20.01.2018 04:00:00 2,2 0,7 18 10 - - ZW 1010,2 20
20.01.2018 03:00:00 1,8 0,5 18 10 25 14 ZW 1010,6 20
20.01.2018 02:00:00 1,9 0,5 18 10 25 14 ZW 1010,7 20
20.01.2018 01:00:00 1,8 0,4 18 10 - - ZZW 1011,0 20
20.01.2018 00:00:00 2,0 0,4 18 10 32 18 ZW 1011,0 20
19.01.2018 23:00:00 2,0 0,0 22 12 32 18 ZW 1011,1 20
19.01.2018 22:00:00 2,1 0,0 18 10 - - ZW 1010,8 20
19.01.2018 21:00:00 2,7 0,2 22 12 29 16 ZW 1010,8 20
19.01.2018 20:00:00 2,7 0,0 22 12 32 18 ZW 1010,6 20
19.01.2018 19:00:00 3,5 0,3 22 12 - - ZW 1010,5 20
19.01.2018 18:00:00 3,5 -0,1 14 8 29 16 ZW 1010,2 20
19.01.2018 17:00:00 4,8 -0,2 18 10 32 18 ZW 1010,2 20
19.01.2018 16:00:00 5,0 -0,4 22 12 - - WZW 1010,2 20
19.01.2018 15:00:00 4,5 0,5 22 12 36 19 WZW 1010,5 20
19.01.2018 14:00:00 4,6 0,6 18 10 29 16 ZW 1010,6 20
19.01.2018 13:00:00 4,5 1,1 18 10 - - ZW 1010,7 20
19.01.2018 12:00:00 4,2 1,1 18 10 29 16 ZW 1011,2 20
19.01.2018 11:00:00 3,0 0,5 18 10 25 14 ZW 1011,1 20
19.01.2018 10:00:00 1,8 0,0 18 10 - - ZW 1010,7 10
19.01.2018 09:00:00 1,4 -0,4 14 8 25 14 ZW 1010,2 20
19.01.2018 08:00:00 1,7 -0,2 18 10 29 16 ZW 1009,5 10
19.01.2018 07:00:00 2,5 0,3 21 11 - - ZW 1008,8 10
19.01.2018 06:00:00 2,7 0,8 14 8 29 16 WZW 1008,2 15
19.01.2018 05:00:00 2,5 1,3 14 8 32 18 WZW 1007,5 20
19.01.2018 04:00:00 2,7 1,1 18 10 - - WZW 1007,0 20
19.01.2018 03:00:00 3,0 0,9 22 12 32 18 WZW 1006,5 20
19.01.2018 02:00:00 2,7 1,2 13 7 22 12 ZW 1005,7 10
19.01.2018 01:00:00 2,7 1,0 15 8 - - WZW 1005,6 10
19.01.2018 00:00:00 2,2 1,0 16 9 22 12 ZW 1005,1 10
18.01.2018 23:00:00 2,3 1,3 11 6 22 12 WZW 1004,5 20
18.01.2018 22:00:00 2,0 1,0 15 8 - - NNW 1004,3 10
18.01.2018 21:00:00 3,5 1,8 4 2 18 10 - 1003,5 10
18.01.2018 20:00:00 4,3 1,4 13 7 18 10 N 1003,6 10
18.01.2018 19:00:00 5,5 0,8 11 6 - - ZW 1003,2 20
18.01.2018 18:00:00 6,4 0,7 8 4 18 10 WZW 1003,3 10
18.01.2018 17:00:00 6,9 0,1 14 8 32 18 W 1003,3 20
18.01.2018 16:00:00 7,1 0,0 11 6 - - W 1003,0 20
18.01.2018 15:00:00 7,0 -0,3 25 14 47 25 W 1002,7 20
18.01.2018 14:00:00 7,2 0,3 29 16 54 29 W 1002,7 20
18.01.2018 13:00:00 7,1 0,0 28 15 - - W 1001,8 10
18.01.2018 12:00:00 8,1 0,4 36 19 83 45 W 1000,7 20
18.01.2018 11:00:00 8,9 1,2 47 25 86 47 W 998,2 20
18.01.2018 10:00:00 9,6 2,3 54 29 - - W 995,8 20
18.01.2018 09:00:00 10,8 4,6 50 27 79 43 WZW 993,6 20
18.01.2018 08:00:00 9,3 6,3 46 25 76 41 WZW 993,4 10
18.01.2018 07:00:00 8,4 6,0 50 27 - - ZW 993,4 10
18.01.2018 06:00:00 6,6 4,9 47 25 68 37 ZW 995,5 12
18.01.2018 05:00:00 4,0 2,8 43 23 65 35 ZZW 997,7 5
18.01.2018 04:00:00 3,9 2,2 44 24 - - ZZW 1000,3 6
18.01.2018 03:00:00 3,9 2,5 29 16 47 25 ZZW 1003,5 9
18.01.2018 02:00:00 4,0 1,5 31 17 47 25 ZW 1005,7 10
18.01.2018 01:00:00 4,5 1,6 25 14 - - ZW 1007,7 20
18.01.2018 00:00:00 4,3 1,0 24 13 36 19 ZW 1008,7 10
17.01.2018 23:00:00 4,0 0,0 22 12 36 19 ZW 1009,5 20
17.01.2018 22:00:00 4,5 -0,2 22 12 - - ZW 1009,7 20
17.01.2018 21:00:00 4,6 -0,5 22 12 32 18 WZW 1009,7 20
17.01.2018 20:00:00 5,0 -0,4 24 13 36 19 WZW 1009,7 10
17.01.2018 19:00:00 4,6 -0,7 26 14 - - WZW 1009,5 10
17.01.2018 18:00:00 4,7 -1,1 14 8 40 21 WZW 1009,7 20
17.01.2018 17:00:00 5,1 -1,9 25 14 40 21 W 1009,2 20
17.01.2018 16:00:00 5,1 -1,1 22 12 - - W 1008,2 10
17.01.2018 15:00:00 5,2 -0,8 25 14 50 27 W 1007,2 20
17.01.2018 14:00:00 4,5 -0,5 29 16 47 25 WZW 1006,2 15
17.01.2018 13:00:00 4,0 -0,4 29 16 - - WZW 1005,7 15
17.01.2018 12:00:00 3,0 -0,2 25 14 58 31 WZW 1005,2 7
17.01.2018 11:00:00 2,5 -1,1 32 18 58 31 WZW 1004,2 5
17.01.2018 10:00:00 2,5 -1,3 29 16 - - WZW 1003,0 10
17.01.2018 09:00:00 1,8 -1,4 22 12 47 25 WZW 1001,8 15
17.01.2018 08:00:00 2,0 -2,3 22 12 43 23 W 1000,7 20
17.01.2018 07:00:00 2,5 -2,5 29 16 - - WZW 999,3 20
17.01.2018 06:00:00 2,6 -1,8 29 16 50 27 W 998,2 20
17.01.2018 05:00:00 3,1 -1,7 28 15 43 23 W 996,9 9
17.01.2018 04:00:00 3,5 -1,1 26 14 - - WZW 996,2 10
17.01.2018 03:00:00 3,3 0,0 28 15 40 21 WZW 995,7 10
17.01.2018 02:00:00 3,7 0,3 29 16 40 21 WZW 995,2 20
17.01.2018 01:00:00 2,7 0,9 22 12 - - ZW 995,4 20
17.01.2018 00:00:00 3,6 0,3 26 14 50 27 ZW 995,0 10
16.01.2018 23:00:00 4,5 0,4 29 16 43 23 ZW 995,1 10
16.01.2018 22:00:00 4,5 0,8 22 12 - - ZW 995,5 10
16.01.2018 21:00:00 4,3 0,3 16 9 29 16 ZW 996,3 10
16.01.2018 20:00:00 5,0 -0,9 22 12 40 21 WZW 996,6 10
16.01.2018 19:00:00 5,4 -0,3 18 10 - - WZW 996,4 10
16.01.2018 18:00:00 5,5 0,0 22 12 40 21 WZW 996,9 20
16.01.2018 17:00:00 5,8 0,2 22 12 47 25 WZW 996,8 20

tt = temperatuur
td = dauwpunt
ff = windsnelheid
fx = windstoten
dd = windrichting
ppp = luchtdruk
vv = zicht

Weerstations in de omgeving